SA7BGG-5 Weather Reports


Display with metric or nautical units.
time (UTC)temp
F
wind
direction
speed
MPH
gust
MPH
rain 1hr
in
rain 24hr
in
rain mn
in
humidity
%
barometer
mb
20260507210005 42 38 0.0 0.0 0.00 0.00 0.00 74 1024.0
20260507205504 42 38 0.0 0.0 0.00 0.00 0.00 73 1024.0
20260507205004 42 38 0.0 0.0 0.00 0.00 0.00 73 1024.0
20260507204504 42 38 0.0 0.0 0.00 0.00 0.00 72 1023.0
20260507204003 42 38 0.0 0.0 0.00 0.00 0.00 72 1023.0
20260507203503 43 27 0.0 0.0 0.00 0.00 0.00 71 1023.0
20260507203003 43 27 0.0 0.0 0.00 0.00 0.00 71 1023.0
20260507202502 44 27 0.0 0.0 0.00 0.00 0.00 70 1023.0
20260507202002 44 27 0.0 0.0 0.00 0.00 0.00 70 1023.0
20260507201502 44 27 0.0 0.0 0.00 0.00 0.00 70 1023.0
20260507201001 44 27 0.0 0.0 0.00 0.00 0.00 70 1023.0
20260507200501 45 25 0.0 0.0 0.00 0.00 0.00 70 1023.0
20260507200001 45 25 0.0 0.0 0.00 0.00 0.00 70 1023.0
20260507195500 46 24 0.0 0.0 0.00 0.00 0.00 68 1023.0
20260507195005 46 24 0.0 0.0 0.00 0.00 0.00 68 1023.0
20260507194504 46 24 0.0 0.0 0.00 0.00 0.00 67 1023.0
20260507194004 46 24 0.0 0.0 0.00 0.00 0.00 67 1023.0
20260507193504 47 24 0.0 0.0 0.00 0.00 0.00 66 1023.0
20260507193003 47 24 0.0 0.0 0.00 0.00 0.00 66 1023.0
20260507192503 47 328 0.0 0.0 0.00 0.00 0.00 66 1023.0
20260507192003 47 328 0.0 0.0 0.00 0.00 0.00 66 1023.0
20260507191502 48 328 0.0 0.0 0.00 0.00 0.00 65 1023.0
20260507191002 48 328 0.0 0.0 0.00 0.00 0.00 65 1023.0
20260507190501 48 328 0.0 0.0 0.00 0.00 0.00 64 1022.0
20260507190002 48 328 0.0 0.0 0.00 0.00 0.00 64 1022.0
20260507185501 49 357 0.0 0.0 0.00 0.00 0.00 61 1022.0
20260507185000 49 357 0.0 0.0 0.00 0.00 0.00 61 1022.0
20260507184500 49 292 0.0 0.0 0.00 0.00 0.00 60 1022.0
20260507184005 49 292 0.0 0.0 0.00 0.00 0.00 60 1022.0
20260507183504 50 292 0.0 0.0 0.00 0.00 0.00 58 1022.0
20260507183004 50 292 0.0 0.0 0.00 0.00 0.00 58 1022.0
20260507182504 50 292 0.0 0.0 0.00 0.00 0.00 56 1022.0
20260507182003 50 292 0.0 0.0 0.00 0.00 0.00 56 1022.0
20260507181503 51 292 0.0 0.0 0.00 0.00 0.00 55 1022.0
20260507181003 51 292 0.0 0.0 0.00 0.00 0.00 55 1022.0
20260507180502 52 292 0.0 0.0 0.00 0.00 0.00 55 1022.0
20260507180002 52 292 0.0 0.0 0.00 0.00 0.00 55 1022.0
20260507175502 53 292 0.0 0.0 0.00 0.00 0.00 54 1022.0
20260507175001 53 292 0.0 0.0 0.00 0.00 0.00 54 1022.0
20260507174501 53 299 0.0 0.0 0.00 0.00 0.00 53 1022.0
20260507174001 53 299 0.0 0.0 0.00 0.00 0.00 53 1022.0
20260507173500 55 307 0.0 0.0 0.00 0.00 0.00 52 1022.0
20260507173005 55 307 0.0 0.0 0.00 0.00 0.00 52 1022.0
20260507172505 56 278 0.0 0.0 0.00 0.00 0.00 50 1021.0
20260507172004 56 278 0.0 0.0 0.00 0.00 0.00 50 1021.0
20260507171504 57 258 0.0 0.0 0.00 0.00 0.00 49 1021.0
20260507171004 57 258 0.0 0.0 0.00 0.00 0.00 49 1021.0
20260507170503 58 258 0.0 0.0 0.00 0.00 0.00 48 1021.0
20260507170003 58 258 0.0 0.0 0.00 0.00 0.00 48 1021.0
20260507165503 60 258 0.0 0.0 0.00 0.00 0.00 47 1021.0
20260507165002 60 258 0.0 0.0 0.00 0.00 0.00 47 1021.0
20260507164502 61 258 0.0 0.0 0.00 0.00 0.00 42 1021.0
20260507164002 61 258 0.0 0.0 0.00 0.00 0.00 42 1021.0
20260507163501 62 240 0.0 0.0 0.00 0.00 0.00 42 1021.0
20260507163001 62 240 0.0 0.0 0.00 0.00 0.00 42 1021.0
20260507162500 62 247 0.0 0.0 0.00 0.00 0.00 41 1021.0
20260507162000 62 247 0.0 0.0 0.00 0.00 0.00 41 1021.0
20260507161505 62 247 0.0 0.0 0.00 0.00 0.00 40 1021.0
20260507161004 62 247 0.0 0.0 0.00 0.00 0.00 40 1021.0
20260507160504 63 248 0.0 0.0 0.00 0.00 0.00 40 1021.0
20260507160004 63 248 0.0 0.0 0.00 0.00 0.00 40 1021.0
20260507155503 64 232 0.0 0.0 0.00 0.00 0.00 40 1021.0
20260507155003 64 232 0.0 0.0 0.00 0.00 0.00 40 1021.0
20260507154502 64 232 0.0 0.0 0.00 0.00 0.00 40 1021.0
20260507154002 64 232 0.0 0.0 0.00 0.00 0.00 40 1021.0
20260507153502 64 211 0.0 0.0 0.00 0.00 0.00 40 1020.0
20260507153001 64 211 0.0 0.0 0.00 0.00 0.00 40 1020.0
20260507152501 64 194 0.0 0.0 0.00 0.00 0.00 40 1020.0
20260507152001 64 194 0.0 0.0 0.00 0.00 0.00 40 1020.0
20260507151500 64 237 0.0 0.0 0.00 0.00 0.00 40 1020.0
20260507151005 64 237 0.0 0.0 0.00 0.00 0.00 40 1020.0
20260507150504 65 237 0.0 0.0 0.00 0.00 0.00 39 1020.0
20260507150004 65 237 0.0 0.0 0.00 0.00 0.00 39 1020.0
20260507145504 65 263 0.0 0.0 0.00 0.00 0.00 39 1020.0
20260507145003 65 263 0.0 0.0 0.00 0.00 0.00 39 1020.0
20260507144503 65 263 0.0 0.0 0.00 0.00 0.00 38 1020.0
20260507144003 65 263 0.0 0.0 0.00 0.00 0.00 38 1020.0
20260507143502 65 240 0.0 0.0 0.00 0.00 0.00 39 1020.0
20260507143002 65 240 0.0 0.0 0.00 0.00 0.00 39 1020.0
20260507142501 65 242 0.0 0.0 0.00 0.00 0.00 39 1020.0
20260507142001 65 242 0.0 0.0 0.00 0.00 0.00 39 1020.0
20260507141501 64 234 0.0 0.0 0.00 0.00 0.00 40 1020.0
20260507141000 64 234 0.0 0.0 0.00 0.00 0.00 40 1020.0
20260507140500 64 234 0.0 0.0 0.00 0.00 0.00 40 1020.0
20260507140006 64 234 0.0 0.0 0.00 0.00 0.00 40 1020.0
20260507135504 64 245 0.0 0.0 0.00 0.00 0.00 38 1020.0
20260507135004 64 245 0.0 0.0 0.00 0.00 0.00 38 1020.0
20260507134504 64 245 0.0 0.0 0.00 0.00 0.00 39 1020.0
20260507134003 64 245 0.0 0.0 0.00 0.00 0.00 39 1020.0
20260507133503 63 245 0.0 0.0 0.00 0.00 0.00 40 1020.0
20260507133003 63 245 0.0 0.0 0.00 0.00 0.00 40 1020.0
20260507132502 62 245 0.0 0.0 0.00 0.00 0.00 40 1020.0
20260507132002 62 245 0.0 0.0 0.00 0.00 0.00 40 1020.0
20260507131502 62 259 0.0 0.0 0.00 0.00 0.00 41 1020.0
20260507131001 62 259 0.0 0.0 0.00 0.00 0.00 41 1020.0
20260507130501 62 274 0.0 0.0 0.00 0.00 0.00 40 1020.0
20260507130000 62 274 0.0 0.0 0.00 0.00 0.00 40 1020.0
20260507125004 62 274 0.0 0.0 0.00 0.00 0.00 40 1020.0
20260507124504 62 274 0.0 0.0 0.00 0.00 0.00 40 1020.0
20260507124004 62 274 0.0 0.0 0.00 0.00 0.00 40 1020.0
20260507123504 63 265 0.0 0.0 0.00 0.00 0.00 41 1020.0
20260507123003 63 265 0.0 0.0 0.00 0.00 0.00 41 1020.0
20260507122503 64 216 0.0 0.0 0.00 0.00 0.00 38 1020.0
20260507122002 64 216 0.0 0.0 0.00 0.00 0.00 38 1020.0
20260507121502 64 216 0.0 0.0 0.00 0.00 0.00 40 1020.0
20260507121002 64 216 0.0 0.0 0.00 0.00 0.00 40 1020.0
20260507120502 63 244 0.0 0.0 0.00 0.00 0.00 39 1020.0
20260507120001 63 244 0.0 0.0 0.00 0.00 0.00 39 1020.0
20260507115501 63 238 0.0 0.0 0.00 0.00 0.00 39 1020.0
20260507115001 63 238 0.0 0.0 0.00 0.00 0.00 39 1020.0
20260507114500 64 238 0.0 0.0 0.00 0.00 0.00 40 1020.0
20260507114005 64 238 0.0 0.0 0.00 0.00 0.00 40 1020.0
20260507113504 65 244 0.0 0.0 0.00 0.00 0.00 39 1020.0
20260507113004 65 244 0.0 0.0 0.00 0.00 0.00 39 1020.0
20260507112504 64 234 0.0 0.0 0.00 0.00 0.00 42 1020.0
20260507112003 64 234 0.0 0.0 0.00 0.00 0.00 42 1020.0
20260507111504 65 192 0.0 0.0 0.00 0.00 0.00 39 1020.0
20260507111003 65 192 0.0 0.0 0.00 0.00 0.00 39 1020.0
20260507110502 67 231 0.0 0.0 0.00 0.00 0.00 40 1020.0
20260507110002 67 231 0.0 0.0 0.00 0.00 0.00 40 1020.0
20260507105502 65 244 0.0 0.0 0.00 0.00 0.00 39 1020.0
20260507105001 65 244 0.0 0.0 0.00 0.00 0.00 39 1020.0
20260507104501 65 244 0.0 0.0 0.00 0.00 0.00 41 1020.0
20260507104001 65 244 0.0 0.0 0.00 0.00 0.00 41 1020.0
20260507103500 64 219 0.0 0.0 0.00 0.00 0.00 43 1020.0
20260507103005 64 219 0.0 0.0 0.00 0.00 0.00 43 1020.0
20260507102505 62 219 0.0 0.0 0.00 0.00 0.00 43 1020.0
20260507102006 62 219 0.0 0.0 0.00 0.00 0.00 43 1020.0
20260507101504 62 219 0.0 0.0 0.00 0.00 0.00 43 1020.0
20260507101003 62 219 0.0 0.0 0.00 0.00 0.00 43 1020.0
20260507100503 62 226 0.0 0.0 0.00 0.00 0.00 40 1020.0
20260507100003 62 226 0.0 0.0 0.00 0.00 0.00 40 1020.0
20260507095502 62 226 0.0 0.0 0.00 0.00 0.00 42 1020.0
20260507095002 62 226 0.0 0.0 0.00 0.00 0.00 42 1020.0
20260507094502 61 215 0.0 0.0 0.00 0.00 0.00 43 1020.0
20260507094001 61 215 0.0 0.0 0.00 0.00 0.00 43 1020.0
20260507093501 61 227 0.0 0.0 0.00 0.00 0.00 43 1020.0
20260507093000 61 227 0.0 0.0 0.00 0.00 0.00 43 1020.0
20260507092500 60 227 0.0 0.0 0.00 0.00 0.00 45 1020.0
20260507092005 60 227 0.0 0.0 0.00 0.00 0.00 45 1020.0
20260507091504 59 227 0.0 0.0 0.00 0.00 0.00 46 1020.0
20260507091004 59 227 0.0 0.0 0.00 0.00 0.00 46 1020.0
20260507090504 58 227 0.0 0.0 0.00 0.00 0.00 46 1020.0
20260507090005 58 227 0.0 0.0 0.00 0.00 0.00 46 1020.0
20260507085503 58 228 0.0 0.0 0.00 0.00 0.00 48 1020.0
20260507085003 58 228 0.0 0.0 0.00 0.00 0.00 48 1020.0
20260507084503 57 228 0.0 0.0 0.00 0.00 0.00 49 1020.0
20260507084002 57 228 0.0 0.0 0.00 0.00 0.00 49 1020.0
20260507083502 57 225 0.0 0.0 0.00 0.00 0.00 50 1020.0
20260507083002 57 225 0.0 0.0 0.00 0.00 0.00 50 1020.0
20260507082501 56 194 0.0 0.0 0.00 0.00 0.00 52 1020.0
20260507082001 56 194 0.0 0.0 0.00 0.00 0.00 52 1020.0
20260507081501 54 45 0.0 0.0 0.00 0.00 0.00 55 1020.0
20260507081000 54 45 0.0 0.0 0.00 0.00 0.00 55 1020.0
20260507080500 53 49 0.0 0.0 0.00 0.00 0.00 57 1020.0
20260507080005 53 49 0.0 0.0 0.00 0.00 0.00 57 1020.0
20260507075504 51 52 0.0 0.0 0.00 0.00 0.00 57 1020.0
20260507075004 51 52 0.0 0.0 0.00 0.00 0.00 57 1020.0
20260507074504 48 27 0.0 0.0 0.00 0.00 0.00 60 1020.0
20260507074003 48 27 0.0 0.0 0.00 0.00 0.00 60 1020.0
20260507073503 48 135 0.0 0.0 0.00 0.00 0.00 63 1020.0
20260507073003 48 135 0.0 0.0 0.00 0.00 0.00 63 1020.0
20260507072502 47 173 0.0 0.0 0.00 0.00 0.00 64 1020.0
20260507072002 47 173 0.0 0.0 0.00 0.00 0.00 64 1020.0
20260507071502 47 173 0.0 0.0 0.00 0.00 0.00 65 1020.0
20260507071002 47 173 0.0 0.0 0.00 0.00 0.00 65 1020.0
20260507070501 46 173 0.0 0.0 0.00 0.00 0.00 71 1020.0
20260507070001 46 173 0.0 0.0 0.00 0.00 0.00 71 1020.0
20260507065501 45 154 0.0 0.0 0.00 0.00 0.00 75 1020.0
20260507065000 45 154 0.0 0.0 0.00 0.00 0.00 75 1020.0
20260507064500 44 144 0.0 0.0 0.00 0.00 0.00 80 1020.0
20260507064005 44 144 0.0 0.0 0.00 0.00 0.00 80 1020.0
20260507063504 44 142 0.0 0.0 0.00 0.00 0.00 85 1020.0
20260507063004 44 142 0.0 0.0 0.00 0.00 0.00 85 1020.0
20260507062504 43 142 0.0 0.0 0.00 0.00 0.00 87 1020.0
20260507062003 43 142 0.0 0.0 0.00 0.00 0.00 87 1020.0
20260507061503 42 142 0.0 0.0 0.00 0.00 0.00 87 1020.0
20260507061003 42 142 0.0 0.0 0.00 0.00 0.00 87 1020.0
20260507060502 41 144 0.0 0.0 0.00 0.00 0.00 87 1020.0
20260507060002 41 144 0.0 0.0 0.00 0.00 0.00 87 1020.0
20260507055502 40 151 0.0 0.0 0.00 0.00 0.00 87 1019.0
20260507055001 40 151 0.0 0.0 0.00 0.00 0.00 87 1019.0
20260507054501 40 183 0.0 0.0 0.00 0.00 0.00 87 1019.0
20260507054000 40 183 0.0 0.0 0.00 0.00 0.00 87 1019.0
20260507053500 39 187 0.0 0.0 0.00 0.00 0.00 87 1019.0
20260507053005 39 187 0.0 0.0 0.00 0.00 0.00 87 1019.0
20260507052505 39 180 0.0 0.0 0.00 0.00 0.00 87 1019.0
20260507052004 39 180 0.0 0.0 0.00 0.00 0.00 87 1019.0
20260507051504 38 181 0.0 0.0 0.00 0.00 0.00 87 1019.0
20260507051003 38 181 0.0 0.0 0.00 0.00 0.00 87 1019.0
20260507050503 38 118 0.0 0.0 0.00 0.00 0.00 87 1019.0
20260507050003 38 118 0.0 0.0 0.00 0.00 0.00 87 1019.0
20260507045503 38 60 0.0 0.0 0.00 0.00 0.00 87 1019.0
20260507045002 38 60 0.0 0.0 0.00 0.00 0.00 87 1019.0
20260507044502 38 58 0.0 0.0 0.00 0.00 0.00 87 1019.0
20260507044002 38 58 0.0 0.0 0.00 0.00 0.00 87 1019.0
20260507043501 37 58 0.0 0.0 0.00 0.00 0.00 87 1019.0
20260507043001 37 58 0.0 0.0 0.00 0.00 0.00 87 1019.0
20260507042501 37 58 0.0 0.0 0.00 0.00 0.00 87 1019.0
20260507042000 37 58 0.0 0.0 0.00 0.00 0.00 87 1019.0
20260507041505 37 58 0.0 0.0 0.00 0.00 0.00 87 1019.0
20260507041004 37 58 0.0 0.0 0.00 0.00 0.00 87 1019.0
20260507040504 37 58 0.0 0.0 0.00 0.00 0.00 87 1019.0
20260507040004 37 58 0.0 0.0 0.00 0.00 0.00 87 1019.0
20260507035503 37 58 0.0 0.0 0.00 0.00 0.00 87 1019.0
20260507035003 37 58 0.0 0.0 0.00 0.00 0.00 87 1019.0
20260507034503 36 58 0.0 0.0 0.00 0.00 0.00 86 1019.0
20260507034002 36 58 0.0 0.0 0.00 0.00 0.00 86 1019.0
20260507033502 36 58 0.0 0.0 0.00 0.00 0.00 87 1019.0
20260507033001 36 58 0.0 0.0 0.00 0.00 0.00 87 1019.0
20260507032501 36 58 0.0 0.0 0.00 0.00 0.00 87 1019.0
20260507032001 36 58 0.0 0.0 0.00 0.00 0.00 87 1019.0
20260507031500 36 58 0.0 0.0 0.00 0.00 0.00 86 1019.0
20260507031005 36 58 0.0 0.0 0.00 0.00 0.00 86 1019.0
20260507030505 36 56 0.0 0.0 0.00 0.00 0.00 86 1018.0
20260507030004 36 56 0.0 0.0 0.00 0.00 0.00 86 1018.0
20260507025504 36 56 0.0 0.0 0.00 0.00 0.00 86 1018.0
20260507025003 36 56 0.0 0.0 0.00 0.00 0.00 86 1018.0
20260507024503 36 69 0.0 0.0 0.00 0.00 0.00 86 1018.0
20260507024003 36 69 0.0 0.0 0.00 0.00 0.00 86 1018.0
20260507023502 36 69 0.0 0.0 0.00 0.00 0.00 86 1018.0
20260507023002 36 69 0.0 0.0 0.00 0.00 0.00 86 1018.0
20260507022501 37 69 0.0 0.0 0.00 0.00 0.00 86 1018.0
20260507022001 37 69 0.0 0.0 0.00 0.00 0.00 86 1018.0
20260507021500 37 69 0.0 0.0 0.00 0.00 0.00 85 1018.0
20260507021000 37 69 0.0 0.0 0.00 0.00 0.00 85 1018.0
20260507020505 37 69 0.0 0.0 0.00 0.00 0.00 85 1018.0
20260507020004 37 69 0.0 0.0 0.00 0.00 0.00 85 1018.0
20260507015504 37 69 0.0 0.0 0.00 0.00 0.00 84 1018.0
20260507015004 37 69 0.0 0.0 0.00 0.00 0.00 84 1018.0
20260507014503 37 69 0.0 0.0 0.00 0.00 0.00 84 1018.0
20260507014003 37 69 0.0 0.0 0.00 0.00 0.00 84 1018.0
20260507013503 37 63 0.0 0.0 0.00 0.00 0.00 84 1018.0
20260507013002 37 63 0.0 0.0 0.00 0.00 0.00 84 1018.0
20260507012502 37 63 0.0 0.0 0.00 0.00 0.00 84 1018.0
20260507012002 37 63 0.0 0.0 0.00 0.00 0.00 84 1018.0
20260507011501 37 80 0.0 0.0 0.00 0.00 0.00 83 1018.0
20260507011001 37 80 0.0 0.0 0.00 0.00 0.00 83 1018.0
20260507010501 37 80 0.0 0.0 0.00 0.00 0.00 83 1018.0
20260507010000 37 80 0.0 0.0 0.00 0.00 0.00 83 1018.0
20260507005500 38 129 0.0 0.0 0.00 0.00 0.00 83 1018.0
20260507005005 38 129 0.0 0.0 0.00 0.00 0.00 83 1018.0
20260507004504 38 129 0.0 0.0 0.00 0.00 0.00 83 1018.0
20260507004004 38 129 0.0 0.0 0.00 0.00 0.00 83 1018.0
20260507003504 38 225 0.0 0.0 0.00 0.00 0.00 82 1018.0
20260507003003 38 225 0.0 0.0 0.00 0.00 0.00 82 1018.0
20260507002503 38 225 0.0 0.0 0.00 0.00 0.00 82 1018.0
20260507002003 38 225 0.0 0.0 0.00 0.00 0.00 82 1018.0
20260507001502 38 225 0.0 0.0 0.00 0.00 0.00 82 1018.0
20260507001002 38 225 0.0 0.0 0.00 0.00 0.00 82 1018.0
20260507000501 39 225 0.0 0.0 0.00 0.00 0.00 82 1018.0
20260507000002 39 225 0.0 0.0 0.00 0.00 0.00 82 1018.0
20260506235501 39 225 0.0 0.0 0.00 0.00 0.00 82 1018.0
20260506235000 39 225 0.0 0.0 0.00 0.00 0.00 82 1018.0
20260506234500 39 225 0.0 0.0 0.00 0.00 0.00 80 1018.0
20260506234005 39 225 0.0 0.0 0.00 0.00 0.00 80 1018.0
20260506233504 39 225 0.0 0.0 0.00 0.00 0.00 80 1018.0
20260506233004 39 225 0.0 0.0 0.00 0.00 0.00 80 1018.0
20260506232504 40 225 0.0 0.0 0.00 0.00 0.00 80 1018.0
20260506232003 40 225 0.0 0.0 0.00 0.00 0.00 80 1018.0
20260506231503 40 225 0.0 0.0 0.00 0.00 0.00 79 1018.0
20260506231003 40 225 0.0 0.0 0.00 0.00 0.00 79 1018.0
20260506230502 41 225 0.0 0.0 0.00 0.00 0.00 79 1018.0
20260506230002 41 225 0.0 0.0 0.00 0.00 0.00 79 1018.0
20260506225501 41 225 0.0 0.0 0.00 0.00 0.00 78 1018.0
20260506225001 41 225 0.0 0.0 0.00 0.00 0.00 78 1018.0
20260506224501 41 225 0.0 0.0 0.00 0.00 0.00 78 1018.0
20260506224000 41 225 0.0 0.0 0.00 0.00 0.00 78 1018.0
20260506223505 42 225 0.0 0.0 0.00 0.00 0.00 79 1018.0
20260506223004 42 225 0.0 0.0 0.00 0.00 0.00 79 1018.0
20260506222504 42 225 0.0 0.0 0.00 0.00 0.00 78 1018.0
20260506222003 42 225 0.0 0.0 0.00 0.00 0.00 78 1018.0
20260506221504 42 225 0.0 0.0 0.00 0.00 0.00 78 1018.0
20260506221003 42 225 0.0 0.0 0.00 0.00 0.00 78 1018.0
20260506220502 43 225 0.0 0.0 0.00 0.00 0.00 78 1018.0
20260506220002 43 225 0.0 0.0 0.00 0.00 0.00 78 1018.0
20260506215502 43 242 0.0 0.0 0.00 0.00 0.00 77 1018.0
20260506215001 43 242 0.0 0.0 0.00 0.00 0.00 77 1018.0
20260506214501 44 242 0.0 0.0 0.00 0.00 0.00 78 1018.0
20260506214001 44 242 0.0 0.0 0.00 0.00 0.00 78 1018.0
20260506213500 44 242 0.0 0.0 0.00 0.00 0.00 76 1018.0
20260506213000 44 242 0.0 0.0 0.00 0.00 0.00 76 1018.0
20260506212505 44 242 0.0 0.0 0.00 0.00 0.00 76 1018.0
20260506212004 44 242 0.0 0.0 0.00 0.00 0.00 76 1018.0
20260506211504 44 242 0.0 0.0 0.00 0.00 0.00 75 1018.0
20260506211004 44 242 0.0 0.0 0.00 0.00 0.00 75 1018.0
20260506210503 44 242 0.0 0.0 0.00 0.00 0.00 74 1018.0